When you browse on this site, cookies collect data to enhance your experience and personalize the content and advertising you see.
Visit our Privacy Policy to learn more. By continuing to use the site, you agree to this use of cookies and data.
  • In Österreich
  • Länderverzeichnis
  • Für 7 Tage
  • Wassertemperatur
  • Satellitenkarten
  • Wetterkarte
  • News
  • Widgets
  • user-avatar
    Anmelden

    Stündliche Wetter Roquefort-sur-Soulzon

    Heute, 23 April, Dienstag

    Zeit Temperatur Niederschläge Wind Luftdruck Luftfeuchtigkeit
    00:00 +10°C° 0 mm 2 m/S 702 mmHg 81%
    01:00 +10°C° 0.3 mm 2 m/S 702 mmHg 84%
    02:00 +10°C° 0.3 mm 2 m/S 701 mmHg 87%
    03:00 +10°C° 0.3 mm 2 m/S 701 mmHg 91%
    04:00 +10°C° 0.4 mm 2 m/S 701 mmHg 92%
    05:00 +10°C° 0.4 mm 2 m/S 701 mmHg 92%
    06:00 +10°C° 0.4 mm 2 m/S 701 mmHg 93%
    07:00 +10°C° 0.3 mm 2 m/S 701 mmHg 92%
    08:00 +11°C° 0.3 mm 3 m/S 701 mmHg 90%
    09:00 +11°C° 0.3 mm 3 m/S 701 mmHg 89%
    10:00 +11°C° 0.3 mm 3 m/S 700 mmHg 89%
    11:00 +11°C° 0.3 mm 4 m/S 700 mmHg 88%
    12:00 +11°C° 0.3 mm 4 m/S 700 mmHg 88%
    13:00 +12°C° 0.4 mm 4 m/S 700 mmHg 87%
    14:00 +12°C° 0.4 mm 5 m/S 700 mmHg 85%
    15:00 +12°C° 0.4 mm 5 m/S 700 mmHg 84%
    16:00 +12°C° 0.1 mm 5 m/S 700 mmHg 87%
    17:00 +11°C° 0.1 mm 6 m/S 699 mmHg 90%
    18:00 +11°C° 0.1 mm 6 m/S 699 mmHg 92%
    19:00 +10°C° 0.1 mm 6 m/S 700 mmHg 93%
    20:00 +10°C° 0.1 mm 6 m/S 700 mmHg 93%
    21:00 +10°C° 0.1 mm 6 m/S 701 mmHg 94%
    22:00 +10°C° 0.1 mm 6 m/S 701 mmHg 93%
    23:00 +10°C° 0.1 mm 6 m/S 702 mmHg 93%

    Morgen, 24 April, Mittwoch

    Zeit Temperatur Niederschläge Wind Luftdruck Luftfeuchtigkeit
    00:00 +10°C° 0.1 mm 7 m/S 702 mmHg 92%
    01:00 +10°C° 0.4 mm 6 m/S 702 mmHg 93%
    02:00 +10°C° 0.4 mm 6 m/S 702 mmHg 94%
    03:00 +10°C° 0.4 mm 5 m/S 702 mmHg 95%
    04:00 +11°C° 0.3 mm 4 m/S 703 mmHg 95%
    05:00 +10°C° 0.3 mm 3 m/S 703 mmHg 95%
    06:00 +10°C° 0.3 mm 2 m/S 704 mmHg 95%
    07:00 +11°C° 0.2 mm 3 m/S 704 mmHg 88%
    08:00 +12°C° 0.2 mm 4 m/S 704 mmHg 81%
    09:00 +12°C° 0.2 mm 5 m/S 705 mmHg 74%
    10:00 +12°C° 1 mm 5 m/S 705 mmHg 72%
    11:00 +13°C° 1 mm 5 m/S 705 mmHg 71%
    12:00 +13°C° 1 mm 4 m/S 705 mmHg 69%
    13:00 +14°C° 0.2 mm 5 m/S 705 mmHg 58%
    14:00 +15°C° 0.2 mm 5 m/S 706 mmHg 48%
    15:00 +17°C° 0.2 mm 6 m/S 706 mmHg 37%
    16:00 +15°C° 0 mm 5 m/S 706 mmHg 46%
    17:00 +13°C° 0 mm 5 m/S 706 mmHg 55%
    18:00 +10°C° 0 mm 5 m/S 706 mmHg 64%
    19:00 +9°C° 0 mm 6 m/S 707 mmHg 70%
    20:00 +8°C° 0 mm 6 m/S 707 mmHg 77%
    21:00 +8°C° 0 mm 7 m/S 707 mmHg 83%
    22:00 +8°C° 0 mm 7 m/S 707 mmHg 83%
    23:00 +8°C° 0 mm 7 m/S 707 mmHg 83%

    übermorgen, 25 April, Donnerstag

    Zeit Temperatur Niederschläge Wind Luftdruck Luftfeuchtigkeit
    00:00 +7°C° 0 mm 8 m/S 707 mmHg 84%
    01:00 +7°C° 0 mm 8 m/S 707 mmHg 84%
    02:00 +8°C° 0 mm 7 m/S 707 mmHg 84%
    03:00 +8°C° 0 mm 7 m/S 707 mmHg 84%
    04:00 +8°C° 0.4 mm 7 m/S 708 mmHg 87%
    05:00 +8°C° 0.4 mm 7 m/S 708 mmHg 90%
    06:00 +8°C° 0.4 mm 7 m/S 708 mmHg 93%
    07:00 +9°C° 0.3 mm 7 m/S 708 mmHg 93%
    08:00 +9°C° 0.3 mm 8 m/S 708 mmHg 92%
    09:00 +10°C° 0.3 mm 8 m/S 708 mmHg 92%
    10:00 +10°C° 1 mm 8 m/S 708 mmHg 93%
    11:00 +10°C° 1 mm 7 m/S 709 mmHg 94%
    12:00 +10°C° 1 mm 6 m/S 709 mmHg 95%
    13:00 +9°C° 3 mm 5 m/S 709 mmHg 96%
    14:00 +10°C° 3 mm 4 m/S 709 mmHg 97%
    15:00 +10°C° 3 mm 3 m/S 709 mmHg 97%
    16:00 +10°C° 2 mm 3 m/S 709 mmHg 97%
    17:00 +10°C° 2 mm 2 m/S 709 mmHg 98%
    18:00 +10°C° 2 mm 2 m/S 709 mmHg 98%
    19:00 +9°C° 1.3 mm 2 m/S 710 mmHg 95%
    20:00 +8°C° 1.3 mm 2 m/S 711 mmHg 92%
    21:00 +7°C° 1.3 mm 2 m/S 711 mmHg 90%
    22:00 +7°C° 0.2 mm 2 m/S 712 mmHg 89%
    23:00 +7°C° 0.2 mm 1 m/S 712 mmHg 89%

    26 April, Freitag

    Zeit Temperatur Niederschläge Wind Luftdruck Luftfeuchtigkeit
    00:00 +7°C° 0.2 mm 1 m/S 712 mmHg 88%
    01:00 +7°C° 0 mm 1 m/S 713 mmHg 89%
    02:00 +6°C° 0 mm 1 m/S 713 mmHg 90%
    03:00 +6°C° 0 mm 1 m/S 713 mmHg 91%
    04:00 +6°C° 0 mm 1 m/S 714 mmHg 92%
    05:00 +6°C° 0 mm 1 m/S 714 mmHg 93%
    06:00 +5°C° 0 mm 2 m/S 715 mmHg 94%
    07:00 +7°C° 0 mm 3 m/S 716 mmHg 84%
    08:00 +8°C° 0 mm 4 m/S 716 mmHg 75%
    09:00 +10°C° 0 mm 5 m/S 717 mmHg 66%
    10:00 +10°C° 0.1 mm 5 m/S 717 mmHg 67%
    11:00 +10°C° 0.1 mm 5 m/S 717 mmHg 68%
    12:00 +10°C° 0.1 mm 6 m/S 717 mmHg 69%
    13:00 +10°C° 0.3 mm 6 m/S 717 mmHg 72%
    14:00 +10°C° 0.3 mm 6 m/S 717 mmHg 74%
    15:00 +10°C° 0.3 mm 6 m/S 717 mmHg 77%
    16:00 +9°C° 0.1 mm 6 m/S 718 mmHg 79%
    17:00 +8°C° 0.1 mm 6 m/S 718 mmHg 82%
    18:00 +8°C° 0.1 mm 5 m/S 718 mmHg 84%
    19:00 +7°C° 0 mm 5 m/S 719 mmHg 87%
    20:00 +6°C° 0 mm 4 m/S 719 mmHg 90%
    21:00 +5°C° 0 mm 3 m/S 720 mmHg 92%
    22:00 +5°C° 0 mm 4 m/S 720 mmHg 92%
    23:00 +4°C° 0 mm 4 m/S 720 mmHg 92%

    27 April, Samstag

    Zeit Temperatur Niederschläge Wind Luftdruck Luftfeuchtigkeit
    00:00 +4°C° 0 mm 4 m/S 721 mmHg 92%
    01:00 +4°C° 0 mm 4 m/S 721 mmHg 93%
    02:00 +4°C° 0 mm 4 m/S 721 mmHg 93%
    03:00 +3°C° 0 mm 5 m/S 721 mmHg 93%
    04:00 +3°C° 0 mm 5 m/S 721 mmHg 92%
    05:00 +3°C° 0 mm 5 m/S 721 mmHg 91%
    06:00 +5°C° 0 mm 5 m/S 721 mmHg 90%
    07:00 +6°C° 0 mm 5 m/S 722 mmHg 86%
    08:00 +7°C° 0 mm 6 m/S 722 mmHg 82%
    09:00 +7°C° 0 mm 6 m/S 722 mmHg 78%
    10:00 +9°C° 0 mm 6 m/S 722 mmHg 73%
    11:00 +10°C° 0 mm 6 m/S 722 mmHg 68%
    12:00 +11°C° 0 mm 6 m/S 722 mmHg 63%
    13:00 +11°C° 0 mm 6 m/S 722 mmHg 61%
    14:00 +13°C° 0 mm 6 m/S 722 mmHg 60%
    15:00 +13°C° 0 mm 5 m/S 721 mmHg 58%
    16:00 +12°C° 0 mm 5 m/S 722 mmHg 63%
    17:00 +12°C° 0 mm 4 m/S 722 mmHg 68%
    18:00 +11°C° 0 mm 4 m/S 722 mmHg 72%
    19:00 +9°C° 0 mm 3 m/S 722 mmHg 79%
    20:00 +8°C° 0 mm 3 m/S 722 mmHg 85%
    21:00 +7°C° 0 mm 2 m/S 723 mmHg 92%
    22:00 +6°C° 0 mm 2 m/S 723 mmHg 93%
    23:00 +6°C° 0 mm 2 m/S 722 mmHg 93%

    28 April, Sonntag

    Zeit Temperatur Niederschläge Wind Luftdruck Luftfeuchtigkeit
    00:00 +5°C° 0 mm 2 m/S 722 mmHg 94%
    01:00 +5°C° 0 mm 2 m/S 722 mmHg 95%
    02:00 +5°C° 0 mm 2 m/S 722 mmHg 95%
    03:00 +5°C° 0 mm 2 m/S 722 mmHg 95%
    04:00 +5°C° 0 mm 2 m/S 722 mmHg 92%
    05:00 +6°C° 0 mm 2 m/S 722 mmHg 90%
    06:00 +6°C° 0 mm 2 m/S 722 mmHg 88%
    07:00 +9°C° 0 mm 2 m/S 722 mmHg 78%
    08:00 +13°C° 0 mm 2 m/S 722 mmHg 68%
    09:00 +14°C° 0 mm 3 m/S 722 mmHg 57%
    10:00 +17°C° 0 mm 2 m/S 722 mmHg 52%
    11:00 +18°C° 0 mm 2 m/S 721 mmHg 47%
    12:00 +20°C° 0 mm 2 m/S 721 mmHg 42%
    13:00 +21°C° 0 mm 2 m/S 720 mmHg 41%
    14:00 +21°C° 0 mm 2 m/S 720 mmHg 40%
    15:00 +21°C° 0 mm 2 m/S 719 mmHg 40%
    16:00 +20°C° 0 mm 2 m/S 719 mmHg 49%
    17:00 +19°C° 0 mm 1 m/S 719 mmHg 57%
    18:00 +18°C° 0 mm 1 m/S 718 mmHg 66%
    19:00 +15°C° 0 mm 1 m/S 718 mmHg 73%
    20:00 +12°C° 0 mm 0 m/S 718 mmHg 80%
    21:00 +10°C° 0 mm 0 m/S 718 mmHg 88%
    22:00 +9°C° 0 mm 0 m/S 718 mmHg 88%
    23:00 +9°C° 0 mm 0 m/S 718 mmHg 89%
    Mehr zeigen